This is the latest recevied weather packets stored in our database for station/object KB4MLW-13. If no packets are shown the sender has not sent any weather packets the latest 10 day(s).
| Time | Temp. | Humidity | Pressure | Rain* | Wind** | Luminosity | Snow |
|---|---|---|---|---|---|---|---|
| 1788201478 | 32.78° C | 61% | 1002.3 hPa | 0 mm | - | - | - |
| 1788201418 | 33.33° C | 60% | 1002.4 hPa | 0 mm | - | - | - |
| 1788201358 | 33.33° C | 58% | 1002.5 hPa | 0 mm | - | - | - |
| 1788201298 | 33.33° C | 59% | 1002.5 hPa | 0 mm | - | - | - |
| 1788201209 | 33.33° C | 60% | 1002.5 hPa | 0 mm | - | - | - |
| 1788201148 | 32.78° C | 62% | 1002.6 hPa | 0 mm | - | - | - |
| 1788201088 | 32.78° C | 59% | 1002.8 hPa | 0 mm | - | - | - |
| 1788201028 | 33.33° C | 59% | 1002.6 hPa | 0 mm | - | - | - |
| 1788200938 | 33.33° C | 61% | 1002.2 hPa | 0 mm | - | - | - |
| 1788200849 | 33.33° C | 58% | 1002.4 hPa | 0 mm | - | - | - |
| 1788200788 | 33.33° C | 57% | 1002.5 hPa | 0 mm | - | - | - |
| 1788200728 | 33.33° C | 59% | 1002.7 hPa | 0 mm | - | - | - |
| 1788200638 | 33.33° C | 59% | 1002.6 hPa | 0 mm | - | - | - |
| 1788200548 | 32.78° C | 59% | 1002.6 hPa | 0 mm | - | - | - |
| 1788200488 | 32.78° C | 62% | 1002.5 hPa | 0 mm | - | - | - |
| 1788200428 | 33.33° C | 60% | 1002.5 hPa | 0 mm | - | - | - |
| 1788200338 | 33.33° C | 61% | 1002.5 hPa | 0 mm | - | - | - |
| 1788200278 | 32.78° C | 64% | 1002.6 hPa | 0 mm | - | - | - |
| 1788200218 | 32.78° C | 61% | 1002.9 hPa | 0 mm | - | - | - |
| 1788200158 | 32.78° C | 58% | 1002.6 hPa | 0 mm | - | - | - |
| 1788200069 | 33.33° C | 59% | 1002.6 hPa | 0 mm | - | - | - |
| 1788200008 | 33.33° C | 60% | 1002.5 hPa | 0 mm | - | - | - |
| 1788199918 | 33.33° C | 60% | 1002.7 hPa | 0 mm | - | - | - |
| 1788199828 | 32.78° C | 64% | 1002.7 hPa | 0 mm | - | - | - |
| 1788199768 | 32.78° C | 63% | 1002.8 hPa | 0 mm | - | - | - |
* Rain latest hour (hover to see other rain measurements)
** Current wind speed in m/s (hover to see current wind gust speed)